Regional Weather Roundup
Issued by NWS

Home | Current Version | Previous Version | Graphics & Text | Print | Product List | Glossary On
Versions: 1 2 3 4 5 6 7 8 9 10 11 12 13 14 15 16 17 18 19 20 21 22 23 24 25 26 27 28 29 30 31 32 33 34 35 36 37 38 39 40 41 42 43 44 45 46 47 48 49 50
969
ASUS45 KBOU 261207
RWRCO

WEATHER ROUNDUP FOR COLORADO
NATIONAL WEATHER SERVICE DENVER/BOULDER CO
600 AM MDT SUN MAR 26 2017

NOTE: "FAIR" INDICATES FEW OR NO CLOUDS BELOW 12000 FEET WITH NO
SIGNIFICANT WEATHER AND/OR OBSTRUCTIONS TO VISIBILITY.

COZ001>005-013-030-031-261300-
...NORTHWEST COLORADO...

CITY           SKY/WX    TMP DP  RH WIND       PRES   REMARKS
CRAIG          CLOUDY    38  31  76 SW10      29.95R
HAYDEN         CLOUDY    36  28  75 W14G20    29.92S
MEEKER         LGT RAIN  37  35  92 S5        29.94R
MOUNT WERNER   NOT AVBL
STEAMBOAT SPGS CLOUDY    35  33  94 SW7       29.91R WCI  29
WALDEN         NOT AVBL
$$

COZ006>008-011-261300-
...WEST CENTRAL VALLEYS...

CITY           SKY/WX    TMP DP  RH WIND       PRES   REMARKS
GRAND JUNCTION CLOUDY    47  37  68 N9        29.89R
MONTROSE       CLOUDY    39  37  92 SE10      29.93R
EAGLE          CLOUDY    36  31  82 CALM      29.92R
RIFLE          CLOUDY    43  36  76 W7        29.90R
DELTA          CLOUDY    44  40  86 NW5       29.91R
NUCLA          CLOUDY    39  37  93 E6        29.96R
$$

COZ017>023-064>068-261300-
...SOUTHWEST COLORADO...

CITY           SKY/WX    TMP DP  RH WIND       PRES   REMARKS
DURANGO        MOCLDY    36  32  85 SW13      29.88S
CORTEZ         MOCLDY    39  37  92 SE3       29.92F
PAGOSA SPRINGS CLOUDY    35  35  99 SW7       29.90R WCI  29
TELLURIDE      LGT SNOW  31  31 100 W18G26    29.95R WCI  19
WOLF CREEK PAS SNOW      19  19 100 SW7       29.97R VSB 1/2 WCI  10
$$

COZ009-010-012-014-032>034-037-058>063-261300-
...CENTRAL COLORADO...

CITY           SKY/WX    TMP DP  RH WIND       PRES   REMARKS
ASPEN          CLOUDY    35  34  96 N3        29.89R
BUENA VISTA    FAIR      39  26  59 NW14G20   29.83S
COPPER MTN     SNOW      27  21  80 MISG      29.94R VSB 1/4
BERTHOUD PASS  CLOUDY    18   9  68 N26G33    29.91F WCI  -1
COTTONWOOD PAS CLOUDY    34  28  80 NW5       29.87R WCI  30
GUNNISON       FAIR      34  29  82 CALM      29.88R
KREMMLING      RAIN      37  36  93 CALM      29.91R
LEADVILLE      CLOUDY    29  23  78 N10       29.88R WCI  20
MONARCH PASS   FOG       23  21  93 SW9       30.01R VSB 1/4 WCI  13
SALIDA         FAIR      38  35  87 CALM      29.90R
SUNLIGHT       SNOW      27  25  93 W7G20     29.98S VSB 1/4 WCI  19
WILKERSON PASS CLOUDY    27  23  86 NE7       29.91S WCI  19
$$

COZ069>075-261300-
...SAN LUIS VALLEY/SANGRE DE CRISTO MOUNTAINS...

CITY           SKY/WX    TMP DP  RH WIND       PRES   REMARKS
ALAMOSA        MIX PCPN  34  33  96 CALM      29.83R
LA VETA PASS   NOT AVBL
SAGUACHE       LGT SNOW  34  32  93 CALM      29.85R
$$

COZ035-036-038>040-261300-
...NORTHERN COLORADO FRONT RANGE...

CITY           SKY/WX    TMP DP  RH WIND       PRES   REMARKS
DENVER INTL AP CLOUDY    42  32  67 NW9       29.79R
DMNS CITY PARK   N/A     44  33  64 NE3G10    29.80R
AURORA         MOCLDY    40  33  76 CALM      29.81R
FRONT RANGE AP FAIR      41  34  75 N8        29.80R
ERIE MUNI ARPT FAIR      41  34  75 E6        29.80R
BOULDER MUN AP FAIR      43  32  65 CALM      29.80R
CENTENNIAL     MOCLDY    38  32  79 CALM      29.80R
BROOMFIELD     FAIR      43  34  70 N9        29.81R
FORT COLLINS   FAIR      46  35  65 N14       29.80R
LONGMONT       FAIR      45  35  68 CALM      29.81R
$$

COZ041-046-047-076>085-087-088-261300-
...PIKES PEAK/PALMER DIVIDE AND SOUTHERN FOOTHILLS...

CITY           SKY/WX    TMP DP  RH WIND       PRES   REMARKS
COLO. SPRINGS  LGT RAIN  41  33  73 NW13G21   29.78R
A. F. ACADEMY  CLOUDY    36  29  73 N7        29.79S
SCHRIEVER AFB  LGT RAIN  41  34  75 N26G32    29.74F
ELLICOTT         N/A    N/A N/A N/A NE6       29.75R
FALCON         LGT RAIN  40  29  64 N12G20    29.81R
FORT CARSON    LGT RAIN  39  34  81 NW22G31   29.74S
LIMON          LGT RAIN  37  35  92 N16       29.75F
MONUMENT HILL  MOCLDY    32  27  80 W8        29.82S WCI  25
TRINIDAD       CLOUDY    44  33  65 NW8       29.73R
$$

COZ042>045-048>051-090-091-261300-
...NORTHEAST COLORADO...

CITY           SKY/WX    TMP DP  RH WIND       PRES   REMARKS
GREELEY ARPT   FAIR      42  29  59 N6        29.81R
AKRON          LGT RAIN  42  32  67 S17G23    29.78S
BURLINGTON     FOG       39  39 100 E8        29.80R VSB 1/2
WRAY           NOT AVBL
STERLING       CLOUDY    43  34  70 NE3       29.80R
HOLYOKE        DRIZZLE   41  37  87 NE3       29.82S
FORT MORGAN    CLOUDY    37  32  82 NE6       29.80R
$$

COZ086-089-092>099-261300-
...SOUTHEAST COLORADO...

CITY           SKY/WX    TMP DP  RH WIND       PRES   REMARKS
PUEBLO         LGT RAIN  44  32  62 CALM      29.74R
LA JUNTA       FAIR      36  32  85 N9        29.71R
LAMAR          CLOUDY    39  36  89 E13       29.67F
SPRINGFIELD      N/A     36  27  69 NW3       29.67F
$$




USA.gov is the U.S. government's official web portal to all federal, state and local government web resources and services.